Powrót do katalogu

STARLINK-35073

AktywnyŁącznośćSSO
NORAD 65385·PAYLOAD·🇺🇸 United States

Wystrzelony Aug 30, 2025 z Vandenberg Space Force Base

Loading…

Następne Przeloty (najbliższe 24 godziny)

TLE

ŚwieżeSource: CelesTrak SupGP

Epoka: Sep 14, 2026, 14:04 UTC

1 65385C 25191G   26257.58659722  .00049457  00000+0  15351-2 0  2573
2 65385  97.2839 123.7022 0001709  87.9255 238.7419 15.33416002    17

Śledź STARLINK-35073 w czasie rzeczywistym z AllMySat

Download on the App Store